Location: Dead Woman Crossing
(43.5369°N, 106.3228°W)
Time: 12:56:30
(UTC+00:00)

ZACube-1 - Pass Details

Date: 05 July 2022
Orbit: 582 x 661 km, 97.6° (Epoch: 14 August)

Event Time Altitude Azimuth Distance (km) Brightness Sun altitude
Rises 09:52:59 0° 29° (NNE) 2,973 ? -13.9°
Reaches altitude 10° 09:55:53 10° 49° (NE) 2,068 ? -13.5°
Maximum altitude 09:58:54 18° 91° (E) 1,627 ? -13.2°
Drops below altitude 10° 10:01:56 10° 134° (SE) 2,072 ? -12.8°
Sets 10:04:50 0° 153° (SSE) 2,982 ? -12.5°
